BREEZE-KM R/B, 40064

Orbit data source: Space-Track

BREEZE-KM R/B, 40064 is space debris in LEO originally from a launch on Thu, 03 Jul 2014 UTC launched from the Plesetsk Missile And Space Complex (PKMTR). Debris objects in space refer to the collection of defunct objects orbiting the Earth. Examples of debris include non-operational satellites, rocket bodies, and fragments generated from explosions, collisions, or faulty payload assembly.

Loading next visibility...
Identifier
40064, 2014-036D
Orbit
LEO
Country
Flag of CISCIS
Related business
Manufacturer
Khrunichev
Mission
Spacecraft
Bus & Motor
BRIZ, S5.92
Mass
2,370 kg wet, 2,370 kg dry
Launch date (UTC)
2014-07-03 (12 years ago)
Launch vehicle
Unknown
Launch site
Plesetsk Missile And Space Complex (PKMTR)
Object type
Payload
Rocket body
Debris
Shape & HBR
Hex Cyl + 1 Rod, 2.0 m
Radar Cross Section
10.190 m², Large (>1 m²)

Expand to show TLE details & history
Last TLE update: 2 days ago

TLE from 2 days ago
0 BREEZE-KM R/B
1 40064U 14036D   26171.29841872  .00000033  00000-0  73440-4 0  9994
2 40064  82.5118 101.8669 0231340 100.6738 262.0505 12.81758676559774
Epoch: 2026-06-20T07:09Z
TLE epoch observation values (Epoch: 2026-06-20T07:09:43.377Z)
Latitude
0.00004°
Longitude
85.92112°
Altitude
1,365.875 km
Speed
7.162 km/s
True Right ascension
06h 47m 28s
True Declination
0° 00' 00"
Sunlit
Object was in daylight at epoch
Visualization orbit readout
Latitude
Unknown
Longitude
Unknown
Altitude
Unknown
Speed
Unknown
Apparent Right ascension
Unknown
Apparent Declination
Unknown
Sunlit
N/A
Visualization observer readout
Local Sidereal Time
21:39:46
Azimuth
Unknown
Elevation
Unknown
Doppler factor
Unknown
Orbital elements
Apogee altitude
1,510.06 km
Perigee altitude
1,153.341 km
Semi-major axis
7,709.838 km
Eccentricity
0.02313
Inclination
82.5118°
RAAN
101.8669°
Arg. of periapsis
100.6738°
True anomaly
259.43638°
Mean anomaly
262.0505°
Eccentric anomaly
260.74228°
Mean motion
3.20609 °/min
Orbital period
112.29 mins
BSTAR
0.00007344
Loading maneuver chart data...
Computing Atmospheric mass density...
Loading historical data...
Loading historical data...
Loading historical data...
Loading historical data...
Loading historical data...
Loading historical data...
Loading historical data...
Other satellites on launch #36 in the year 2014 (2014-07-03 UTC)

Documentation

Showing up to 5 results
|